Location: Innerarity Island Observatory
(30.3139°N, 87.4867°W)
Time: 04:46:37
(UTC-05:00)

Amateur Radio Satellites - All Passes

Search period start: 01 August 2015 04:16
Search period end: 02 August 2015 04:16
Location: Innerarity Island Observatory, 30.3139°N, 87.4867°W

Satellite Date Start Highest point End Downlink Frequencies (MHz)
Time Altitude Azimuth
Cosmos 2504 01 Aug 04:28:06 04:33:25 21° 289° (WNW) 04:38:37 435.465 / 435.565
ISS 01 Aug 04:30:43 04:33:52 47° 43° (NE) 04:37:02 145.825
MOZHAYETS 4 01 Aug 04:33:13 04:37:48 72° 77° (ENE) 04:42:28
ITAMSAT 1 01 Aug 04:35:33 04:38:46 16° 292° (WNW) 04:41:45 435.822/435.867
HORYU 2 01 Aug 04:47:01 04:51:33 84° 281° (WNW) 04:56:02 437.375
JAS-2 01 Aug 05:03:44 05:10:48 37° 290° (WNW) 05:17:34 435.910
AO-7 01 Aug 05:07:14 05:15:35 83° 288° (WNW) 05:23:53 29.400- 29.500
GONETS M04 01 Aug 05:11:47 05:18:32 27° 87° (E) 05:25:36
JUGNU 01 Aug 05:19:28 05:24:35 30° 180° (S) 05:29:38 437.505
SRMSAT 01 Aug 05:22:51 05:27:32 25° 171° (S) 05:32:16 437.500
DANDE 01 Aug 05:36:20 05:38:07 13° 280° (W) 05:39:37 436.750
RS-15 01 Aug 05:37:59 05:47:45 30° 46° (NE) 05:58:10 29.354- 29.394
CUTE-I 01 Aug 06:01:53 06:04:59 16° 93° (E) 06:08:21 437.470
CUBESAT XI-V 01 Aug 06:26:56 06:31:39 82° 260° (W) 06:36:21 437.345
Cubesat XI-IV 01 Aug 06:44:17 06:49:23 47° 99° (E) 06:54:30 437.490
STRAND 1 01 Aug 06:54:55 06:59:56 56° 75° (ENE) 07:04:59 437.568
Cosmos 2499 01 Aug 06:56:00 07:01:42 27° 87° (E) 07:07:58 435.465 / 435.565
AO-7 01 Aug 07:03:13 07:07:23 14° 302° (WNW) 07:10:57 29.400- 29.500
GONETS M04 01 Aug 07:06:36 07:15:01 50° 281° (W) 07:23:22
JUGNU 01 Aug 07:08:27 07:13:07 24° 190° (S) 07:17:44 437.505
SRMSAT 01 Aug 07:11:10 07:16:15 30° 180° (S) 07:21:19 437.500
PRISM 01 Aug 07:33:54 07:38:02 58° 259° (W) 07:42:11 437.425
CUTE-I 01 Aug 07:40:16 07:45:20 46° 287° (WNW) 07:50:21 437.470
BRITE-PL 01 Aug 07:42:04 07:45:25 21° 96° (E) 07:49:05 437.365/2234.400
RS-15 01 Aug 07:49:29 08:01:24 74° 246° (WSW) 08:13:34 29.354- 29.394
PCSat 01 Aug 07:51:29 07:54:47 17° 106° (ESE) 07:58:22 145.827
GOMX 1 01 Aug 07:53:33 07:56:22 16° 94° (E) 07:59:31 467.674
SO-50 01 Aug 07:59:20 08:01:37 14° 109° (ESE) 08:04:12 436.795
CUTE 1.7 + AOD 2 01 Aug 08:15:48 08:16:18 10° 91° (E) 08:17:09 437.475
CANX-2 01 Aug 08:22:26 08:24:52 15° 93° (E) 08:27:29 2200.000
Cubesat XI-IV 01 Aug 08:25:45 08:29:10 17° 292° (WNW) 08:32:19 437.490
M-CUBED/EXP-1 PRIME 01 Aug 08:30:02 08:31:48 13° 63° (ENE) 08:33:50 437.505
STRAND 1 01 Aug 08:37:15 08:39:32 12° 269° (W) 08:41:28 437.568
HO-68 01 Aug 08:41:15 08:47:37 35° 98° (E) 08:54:05 435.675
BEESAT 2 01 Aug 08:44:25 08:47:58 29° 57° (ENE) 08:51:31 435.950
Cosmos 2499 01 Aug 08:47:39 08:54:31 43° 283° (WNW) 09:01:48 435.465 / 435.565
AUBIESAT-1 01 Aug 08:57:48 09:00:58 24° 67° (ENE) 09:04:26 437.475
JUGNU 01 Aug 08:59:05 09:01:36 13° 198° (SSW) 09:03:59 437.505
SRMSAT 01 Aug 09:00:18 09:04:57 24° 190° (S) 09:09:34 437.500
DOVE 4 01 Aug 09:18:09 09:22:53 89° 278° (W) 09:27:53 437.250
BRITE-PL 01 Aug 09:20:06 09:23:56 27° 286° (WNW) 09:27:56 437.365/2234.400
BEESAT 3 01 Aug 09:23:53 09:27:52 62° 245° (WSW) 09:31:45 437.485
CINEMA 3 01 Aug 09:27:18 09:31:54 48° 99° (E) 09:36:42 145.822/145.860
COMPASS 1 01 Aug 09:30:09 09:34:19 59° 100° (E) 09:38:27 437.405
GOMX 1 01 Aug 09:30:18 09:34:35 38° 285° (WNW) 09:39:05 467.674
PCSat 01 Aug 09:32:42 09:37:52 46° 298° (WNW) 09:43:05 145.827
SO-50 01 Aug 09:37:14 09:41:46 47° 301° (WNW) 09:46:27 436.795
FUNcube-1 01 Aug 09:41:14 09:43:54 16° 93° (E) 09:46:48 145.935
UWE-3 01 Aug 09:42:46 09:46:26 24° 95° (E) 09:50:15 435.000/436.395/437.385
SEEDS 01 Aug 09:45:17 09:49:31 65° 284° (WNW) 09:53:42 437.485
CUTE 1.7 + AOD 2 01 Aug 09:48:24 09:52:31 46° 285° (WNW) 09:56:36 437.475
Oscar 11 01 Aug 09:52:51 09:56:52 37° 98° (E) 10:00:54 145.826/435.025
CANX-2 01 Aug 09:57:02 10:00:54 32° 286° (WNW) 10:04:40 2200.000
DELFI C3 01 Aug 09:57:28 10:00:50 25° 96° (E) 10:04:15 145.870
CUBEBUG 2 01 Aug 09:57:49 10:02:19 47° 99° (E) 10:06:55 437.445
M-CUBED/EXP-1 PRIME 01 Aug 10:02:33 10:06:11 38° 258° (WSW) 10:10:07 437.505
HUMSAT D 01 Aug 10:07:00 10:08:04 11° 91° (E) 10:09:26 437.325/437.525
RS-15 01 Aug 10:08:05 10:12:42 12° 258° (WSW) 10:15:49 29.354- 29.394
TIGRISAT 01 Aug 10:10:05 10:13:48 30° 73° (ENE) 10:17:39 435.000
AAUSAT CUBESAT 2 01 Aug 10:11:38 10:15:40 46° 284° (WNW) 10:19:39 437.432
ANTELSAT 01 Aug 10:11:48 10:15:38 33° 73° (ENE) 10:19:36 437.575/2403.000
DUCHIFAT 1 01 Aug 10:13:50 10:14:15 10° 69° (ENE) 10:14:56 145.980
QB50P1 01 Aug 10:16:06 10:17:35 12° 70° (ENE) 10:19:19 145.935-145.965
NANOSAT C BR1 01 Aug 10:17:13 10:18:46 12° 70° (ENE) 10:20:32 145.865
AIST 2 01 Aug 10:17:28 10:21:37 73° 62° (ENE) 10:25:42 435.215
BEESAT 2 01 Aug 10:23:14 10:25:48 16° 250° (WSW) 10:28:11 435.950
DX 1 01 Aug 10:24:42 10:26:01 11° 92° (E) 10:27:38 434.975-435.025
HO-68 01 Aug 10:28:51 10:35:18 36° 291° (WNW) 10:41:37 435.675
AUBIESAT-1 01 Aug 10:32:43 10:35:40 20° 262° (W) 10:38:41 437.475
YUBILEINY 01 Aug 10:46:44 10:53:38 26° 72° (ENE) 11:00:51 435.215
SRMSAT 01 Aug 10:51:08 10:53:36 12° 198° (SSW) 10:55:54 437.500
ZACube-1 01 Aug 10:54:13 10:58:45 64° 283° (WNW) 11:03:18 437.345
POLYITAN 1 01 Aug 10:56:42 11:00:36 40° 75° (ENE) 11:04:34 437.675
UNISAT 6 01 Aug 11:02:51 11:07:04 55° 260° (W) 11:11:23 437.425
AIST 1 01 Aug 11:04:56 11:06:15 11° 89° (E) 11:07:52
CINEMA 3 01 Aug 11:06:16 11:08:47 14° 289° (WNW) 11:11:05 145.822/145.860
POPSAT HIP 1 01 Aug 11:13:27 11:17:35 66° 77° (ENE) 11:21:45 437.405
Cosmos 2491 01 Aug 11:14:20 11:20:36 24° 86° (E) 11:27:17 435.465 / 435.565
FUNcube-1 01 Aug 11:16:09 11:20:20 36° 286° (WNW) 11:24:29 145.935
BUGSAT 1 01 Aug 11:17:03 11:20:51 40° 75° (ENE) 11:24:39 437.445
UWE-3 01 Aug 11:19:03 11:22:54 25° 287° (WNW) 11:26:39 435.000/436.395/437.385
QB50P2 01 Aug 11:21:06 11:25:17 87° 78° (ENE) 11:29:31 145.880/145.840
50 SAT 01 Aug 11:24:20 11:28:09 45° 99° (E) 11:31:57 437.505
UKube-1 01 Aug 11:29:50 11:34:09 73° 101° (ESE) 11:38:27 .
Oscar 11 01 Aug 11:30:20 11:32:45 14° 290° (WNW) 11:34:58 145.826/435.025
O/OREOS (USA 219) 01 Aug 11:32:02 11:36:22 41° 68° (ENE) 11:40:43 437.305
DELFI C3 01 Aug 11:33:00 11:35:44 17° 288° (WNW) 11:38:18 145.870
AISAT 01 Aug 11:34:22 11:38:40 51° 100° (E) 11:42:59 437.250
CUBEBUG 2 01 Aug 11:36:15 11:38:40 14° 290° (WNW) 11:40:50 437.445
HUMSAT D 01 Aug 11:39:55 11:44:04 45° 285° (WNW) 11:48:11 437.325/437.525
DUCHIFAT 1 01 Aug 11:45:39 11:49:41 47° 261° (W) 11:53:43 145.980
TIGRISAT 01 Aug 11:47:47 11:50:38 17° 267° (W) 11:53:21 435.000
CUBEBUG 1 01 Aug 11:48:09 11:52:10 38° 98° (E) 11:56:14 437.445
QB50P1 01 Aug 11:49:09 11:53:07 40° 261° (W) 11:57:05 145.935-145.965
ANTELSAT 01 Aug 11:49:55 11:52:33 15° 267° (W) 11:55:01 437.575/2403.000
NANOSAT C BR1 01 Aug 11:50:19 11:54:16 40° 261° (W) 11:58:13 145.865
DX 1 01 Aug 11:58:24 12:02:31 43° 286° (WNW) 12:06:37 434.975-435.025
VELOX 1 01 Aug 12:13:22 12:17:40 53° 285° (WNW) 12:21:57 145.980
SPROUT 01 Aug 12:23:38 12:27:15 27° 96° (E) 12:30:57 437.525
ESTCUBE 1 01 Aug 12:25:48 12:30:13 56° 284° (WNW) 12:34:35 437.505/2401.250
Cosmos 2504 01 Aug 12:30:01 12:32:23 12° 65° (ENE) 12:35:37 435.465 / 435.565
TISAT 1 01 Aug 12:34:55 12:38:03 21° 95° (E) 12:41:19 437.305
POLYITAN 1 01 Aug 12:35:14 12:36:44 11° 268° (W) 12:37:58 437.675
AIST 1 01 Aug 12:39:29 12:43:36 39° 280° (W) 12:47:40
YUBILEINY 01 Aug 12:42:22 12:50:55 54° 269° (W) 12:59:22 435.215
Oscar 19 01 Aug 12:46:15 12:50:14 24° 71° (ENE) 12:54:21 437.125/150
BUGSAT 1 01 Aug 12:55:41 12:56:32 10° 268° (W) 12:57:06 437.445
Cosmos 2491 01 Aug 13:08:21 13:16:59 58° 280° (W) 13:25:32 435.465 / 435.565
O/OREOS (USA 219) 01 Aug 13:13:10 13:15:29 13° 259° (W) 13:17:32 437.305
AISAT 01 Aug 13:13:39 13:14:51 11° 291° (WNW) 13:15:46 437.250
CUBEBUG 1 01 Aug 13:26:00 13:28:14 14° 290° (WNW) 13:30:15 437.445
SWISSCUBE 01 Aug 13:38:43 13:42:00 19° 94° (E) 13:45:28 437.505
Gurwin Techsat 1B 01 Aug 13:47:06 13:51:31 28° 71° (ENE) 13:56:03 435.225
ITUPSAT 1 01 Aug 13:59:11 14:03:17 29° 97° (E) 14:07:27 437.325
SPROUT 01 Aug 14:00:06 14:03:10 19° 288° (WNW) 14:06:06 437.525
ITAMSAT 1 01 Aug 14:07:00 14:11:48 40° 73° (ENE) 14:16:41 435.822/435.867
TISAT 1 01 Aug 14:10:23 14:13:45 23° 287° (WNW) 14:17:02 437.305
AO-7 01 Aug 14:12:12 14:15:50 14° 58° (ENE) 14:20:04 29.400- 29.500
Cosmos 2504 01 Aug 14:17:30 14:26:02 80° 83° (E) 14:34:41 435.465 / 435.565
Oscar 19 01 Aug 14:25:00 14:29:28 30° 263° (W) 14:33:53 437.125/150
DANDE 01 Aug 14:37:21 14:37:42 10° 78° (ENE) 14:38:29 436.750
CUSAT 1 01 Aug 14:51:46 14:55:51 30° 81° (E) 15:01:08 437.405
BEESAT 01 Aug 14:54:40 14:59:22 61° 285° (WNW) 15:04:03 436.000
JAS-2 01 Aug 15:08:47 15:14:31 60° 74° (ENE) 15:21:05 435.910
STARS 01 Aug 15:14:18 15:17:03 17° 94° (E) 15:19:59 437.465
SWISSCUBE 01 Aug 15:15:41 15:19:56 32° 287° (WNW) 15:24:05 437.505
Gurwin Techsat 1B 01 Aug 15:26:57 15:31:27 27° 264° (W) 15:35:51 435.225
ITUPSAT 1 01 Aug 15:37:23 15:41:02 21° 289° (WNW) 15:44:32 437.325
HORYU 2 01 Aug 15:39:35 15:43:45 42° 74° (ENE) 15:47:59 437.375
KKS-1 01 Aug 15:40:42 15:45:09 65° 101° (ESE) 15:49:35 437.445
ITAMSAT 1 01 Aug 15:47:50 15:51:29 18° 266° (W) 15:54:55 435.822/435.867
AO-7 01 Aug 15:59:16 16:07:38 82° 72° (ENE) 16:16:02 29.400- 29.500
VERMONT LUNAR 01 Aug 16:11:56 16:13:51 15° 141° (SE) 16:15:50 437.305
Cosmos 2504 01 Aug 16:12:24 16:17:32 16° 276° (W) 16:22:04 435.465 / 435.565
DANDE 01 Aug 16:16:31 16:20:38 51° 262° (W) 16:26:09 436.750
CUSAT 1 01 Aug 16:34:30 16:38:22 23° 263° (W) 16:42:52 437.405
MOZHAYETS 4 01 Aug 16:34:41 16:38:32 27° 96° (E) 16:42:26
STARS 01 Aug 16:49:37 16:53:35 32° 287° (WNW) 16:57:28 437.465
JAS-2 01 Aug 16:56:52 17:00:23 15° 272° (W) 17:03:41 435.910
CUTE-I 01 Aug 17:18:35 17:21:42 16° 68° (ENE) 17:25:04 437.470
HORYU 2 01 Aug 17:18:39 17:20:38 12° 268° (W) 17:22:20 437.375
GONETS M04 01 Aug 17:23:30 17:32:07 63° 81° (E) 17:40:47
VERMONT LUNAR 01 Aug 17:47:13 17:50:21 59° 332° (NNW) 17:53:30 437.305
AO-7 01 Aug 17:56:28 18:01:21 15° 268° (W) 18:05:35 29.400- 29.500
Cubesat XI-IV 01 Aug 18:00:35 18:05:39 45° 73° (ENE) 18:10:46 437.490
PHONESAT 2.4 01 Aug 18:09:17 18:11:48 19° 142° (SE) 18:14:24 2401.200-2431.200
MOZHAYETS 4 01 Aug 18:12:04 18:15:38 22° 288° (WNW) 18:19:04
SO-50 01 Aug 18:14:20 18:18:48 34° 56° (ENE) 18:23:11 436.795
PCSat 01 Aug 18:26:15 18:31:20 41° 61° (ENE) 18:36:26 145.827
CUBESAT XI-V 01 Aug 18:29:40 18:33:56 38° 98° (E) 18:38:13 437.345
Cosmos 2499 01 Aug 18:44:09 18:52:38 51° 79° (E) 19:01:11 435.465 / 435.565
BRITE-PL 01 Aug 18:49:49 18:51:20 12° 72° (ENE) 18:53:07 437.365/2234.400
CUTE-I 01 Aug 18:56:14 19:01:25 49° 260° (W) 19:06:36 437.470
HO-68 01 Aug 19:06:49 19:10:02 14° 62° (ENE) 19:13:43 435.675
STRAND 1 01 Aug 19:11:42 19:16:07 30° 97° (E) 19:20:36 437.568
GONETS M04 01 Aug 19:22:07 19:28:23 21° 275° (W) 19:34:11
PRISM 01 Aug 19:22:12 19:25:43 28° 97° (E) 19:29:17 437.425
VERMONT LUNAR 01 Aug 19:25:21 19:27:30 17° 348° (NNW) 19:29:37 437.305
ISS 01 Aug 19:30:10 19:32:43 22° 129° (SE) 19:35:21 145.825
Cubesat XI-IV 01 Aug 19:42:25 19:46:00 17° 267° (W) 19:49:18 437.490
PHONESAT 2.4 01 Aug 19:46:08 19:49:35 56° 334° (NNW) 19:53:03 2401.200-2431.200
SO-50 01 Aug 19:55:26 19:59:08 21° 250° (WSW) 20:02:37 436.795
RS-15 01 Aug 19:56:09 20:04:30 28° 106° (ESE) 20:13:28 29.354- 29.394
CUBESAT XI-V 01 Aug 20:08:19 20:11:06 15° 290° (WNW) 20:13:40 437.345
PCSat 01 Aug 20:10:35 20:14:29 20° 253° (WSW) 20:18:11 145.827
COMPASS 1 01 Aug 20:16:31 20:19:28 19° 72° (ENE) 20:22:35 437.405
DOVE 4 01 Aug 20:18:54 20:22:52 44° 76° (ENE) 20:26:49 437.250
CINEMA 3 01 Aug 20:24:54 20:27:51 20° 72° (ENE) 20:30:58 145.822/145.860
BRITE-PL 01 Aug 20:25:22 20:29:40 42° 261° (W) 20:33:43 437.365/2234.400
SEEDS 01 Aug 20:31:30 20:35:25 39° 75° (ENE) 20:39:25 437.485
GOMX 1 01 Aug 20:33:05 20:37:22 63° 259° (W) 20:41:30 467.674
CUTE 1.7 + AOD 2 01 Aug 20:35:05 20:39:15 57° 77° (ENE) 20:43:28 437.475
Cosmos 2499 01 Aug 20:38:05 20:45:28 29° 273° (W) 20:52:31 435.465 / 435.565
CANX-2 01 Aug 20:43:28 20:47:44 84° 78° (ENE) 20:52:02 2200.000
Oscar 11 01 Aug 20:43:29 20:45:47 15° 71° (ENE) 20:48:18 145.826/435.025
HO-68 01 Aug 20:49:53 20:57:02 85° 255° (WSW) 21:04:13 435.675
STRAND 1 01 Aug 20:51:08 20:55:12 24° 289° (WNW) 20:59:07 437.568
CUBEBUG 2 01 Aug 20:51:51 20:54:37 18° 71° (ENE) 20:57:34 437.445
AAUSAT CUBESAT 2 01 Aug 20:56:13 21:00:16 51° 76° (ENE) 21:04:23 437.432
PRISM 01 Aug 20:58:20 21:00:57 16° 289° (WNW) 21:03:23 437.425
VERMONT LUNAR 01 Aug 21:03:19 21:05:01 14° 5° (N) 21:06:42 437.305
ISS 01 Aug 21:06:27 21:09:06 22° 322° (NW) 21:11:43 145.825
PHONESAT 2.4 01 Aug 21:25:28 21:28:00 18° 349° (N) 21:30:32 2401.200-2431.200
ZACube-1 01 Aug 21:44:35 21:48:34 46° 75° (ENE) 21:52:40 437.345
M-CUBED/EXP-1 PRIME 01 Aug 21:48:56 21:53:00 28° 100° (E) 21:56:58 437.505
COMPASS 1 01 Aug 21:51:30 21:55:00 25° 265° (W) 21:58:26 437.405
CINEMA 3 01 Aug 22:01:40 22:04:59 22° 265° (W) 22:08:13 145.822/145.860
50 SAT 01 Aug 22:04:48 22:06:01 11° 70° (ENE) 22:07:27 437.505
RS-15 01 Aug 22:05:26 22:16:12 63° 302° (WNW) 22:27:16 29.354- 29.394
FUNcube-1 01 Aug 22:05:47 22:09:56 87° 75° (ENE) 22:14:11 145.935
SEEDS 01 Aug 22:09:38 22:11:25 12° 268° (W) 22:12:58 437.485
TIGRISAT 01 Aug 22:09:39 22:10:40 11° 91° (E) 22:12:02 435.000
UWE-3 01 Aug 22:09:54 22:13:59 57° 260° (W) 22:18:10 435.000/436.395/437.385
ANTELSAT 01 Aug 22:11:07 22:12:49 12° 91° (E) 22:14:51 437.575/2403.000
DELFI C3 01 Aug 22:12:52 22:16:52 61° 260° (W) 22:20:54 145.870
AUBIESAT-1 01 Aug 22:17:15 22:21:50 51° 104° (ESE) 22:26:13 437.475
Oscar 11 01 Aug 22:17:43 22:21:42 35° 262° (W) 22:25:41 145.826/435.025
UKube-1 01 Aug 22:19:21 22:23:02 29° 73° (ENE) 22:26:47 .
HUMSAT D 01 Aug 22:25:37 22:29:39 57° 76° (ENE) 22:33:45 437.325/437.525
AISAT 01 Aug 22:27:10 22:30:34 23° 72° (ENE) 22:34:04 437.250
CUBEBUG 2 01 Aug 22:27:39 22:31:09 26° 264° (W) 22:34:39 437.445
BEESAT 2 01 Aug 22:32:44 22:35:52 22° 111° (ESE) 22:39:07 435.950
VERMONT LUNAR 01 Aug 22:39:31 22:42:22 30° 21° (NNE) 22:45:12 437.305
CUBEBUG 1 01 Aug 22:39:53 22:42:33 17° 71° (ENE) 22:45:22 437.445
DX 1 01 Aug 22:47:51 22:52:11 75° 77° (ENE) 22:56:31 434.975-435.025
POLYITAN 1 01 Aug 22:50:15 22:51:06 11° 91° (E) 22:52:16 437.675
AIST 1 01 Aug 22:52:45 22:56:18 26° 78° (ENE) 22:59:55
UNISAT 6 01 Aug 23:00:11 23:04:43 48° 99° (E) 23:09:17 437.425
PHONESAT 2.4 01 Aug 23:04:31 23:06:48 16° 6° (N) 23:09:06 2401.200-2431.200
VELOX 1 01 Aug 23:04:55 23:09:17 64° 76° (ENE) 23:13:39 145.980
POPSAT HIP 1 01 Aug 23:05:20 23:08:03 17° 94° (E) 23:10:57 437.405
BEESAT 3 01 Aug 23:10:32 23:14:35 86° 300° (WNW) 23:18:41 437.485
QB50P2 01 Aug 23:12:43 23:16:00 22° 95° (E) 23:19:24 145.880/145.840
SPROUT 01 Aug 23:15:04 23:15:44 10° 69° (ENE) 23:16:42 437.525
ESTCUBE 1 01 Aug 23:19:21 23:23:50 64° 76° (ENE) 23:28:21 437.505/2401.250
M-CUBED/EXP-1 PRIME 01 Aug 23:23:45 23:27:37 24° 293° (WNW) 23:31:14 437.505
Cosmos 2491 01 Aug 23:25:45 23:34:14 56° 80° (E) 23:42:45 435.465 / 435.565
DUCHIFAT 1 01 Aug 23:35:50 23:39:50 40° 99° (E) 23:43:51 145.980
50 SAT 01 Aug 23:36:43 23:40:17 35° 262° (W) 23:43:52 437.505
QB50P1 01 Aug 23:39:36 23:43:43 47° 99° (E) 23:47:51 145.935-145.965
YUBILEINY 01 Aug 23:40:09 23:47:41 36° 88° (E) 23:55:29 435.215
NANOSAT C BR1 01 Aug 23:40:31 23:44:37 47° 99° (E) 23:48:45 145.865
TIGRISAT 01 Aug 23:43:10 23:47:46 54° 284° (WNW) 23:52:20 435.000
ANTELSAT 01 Aug 23:45:20 23:49:53 49° 285° (WNW) 23:54:25 437.575/2403.000
AUBIESAT-1 01 Aug 23:53:40 23:56:05 14° 296° (WNW) 23:58:13 437.475
UKube-1 01 Aug 23:56:14 23:59:12 17° 266° (W) 00:02:00 .
AISAT 02 Aug 00:03:30 00:07:04 23° 264° (W) 00:10:31 437.250
AIST 2 02 Aug 00:09:34 00:13:44 63° 115° (ESE) 00:17:57 435.215
BEESAT 2 02 Aug 00:10:30 00:13:50 23° 305° (NW) 00:17:06 435.950
CUBEBUG 1 02 Aug 00:14:46 00:18:41 31° 263° (W) 00:22:33 437.445
VERMONT LUNAR 02 Aug 00:16:11 00:19:06 35° 215° (SW) 00:21:59 437.305
POLYITAN 1 02 Aug 00:23:10 00:27:16 45° 285° (WNW) 00:31:21 437.675
RS-15 02 Aug 00:25:29 00:31:42 15° 329° (NNW) 00:37:25 29.354- 29.394
AIST 1 02 Aug 00:30:59 00:33:46 17° 270° (W) 00:36:22
UNISAT 6 02 Aug 00:38:47 00:41:08 13° 291° (WNW) 00:43:12 437.425
BUGSAT 1 02 Aug 00:39:47 00:43:43 47° 285° (WNW) 00:47:41 437.445
POPSAT HIP 1 02 Aug 00:40:15 00:43:58 29° 287° (WNW) 00:47:36 437.405
SWISSCUBE 02 Aug 00:41:24 00:43:09 12° 68° (ENE) 00:45:12 437.505
PHONESAT 2.4 02 Aug 00:42:06 00:45:23 37° 23° (NNE) 00:48:40 2401.200-2431.200
SPROUT 02 Aug 00:47:19 00:51:27 48° 261° (W) 00:55:35 437.525
QB50P2 02 Aug 00:48:26 00:51:49 22° 287° (WNW) 00:55:05 145.880/145.840
TISAT 1 02 Aug 00:55:48 00:59:57 66° 259° (W) 01:04:06 437.305
ITUPSAT 1 02 Aug 01:01:13 01:04:27 19° 70° (ENE) 01:07:51 437.325
Oscar 19 02 Aug 01:04:39 01:06:58 13° 92° (E) 01:09:37 437.125/150
DUCHIFAT 1 02 Aug 01:13:22 01:15:19 13° 290° (WNW) 01:17:03 145.980
QB50P1 02 Aug 01:18:01 01:19:13 11° 290° (WNW) 01:20:08 145.935-145.965
NANOSAT C BR1 02 Aug 01:18:59 01:20:05 11° 290° (WNW) 01:20:55 145.865
Cosmos 2491 02 Aug 01:23:53 01:30:38 24° 274° (W) 01:37:00 435.465 / 435.565
JUGNU 02 Aug 01:29:22 01:32:28 15° 163° (SSE) 01:35:41 437.505
YUBILEINY 02 Aug 01:36:25 01:44:27 39° 284° (WNW) 01:52:22 435.215
O/OREOS (USA 219) 02 Aug 01:38:21 01:42:43 55° 291° (WNW) 01:47:08 437.305
AIST 2 02 Aug 01:52:05 01:52:46 10° 311° (NW) 01:53:13 435.215
BEESAT 02 Aug 01:55:05 01:59:52 79° 78° (ENE) 02:04:40 436.000
Gurwin Techsat 1B 02 Aug 02:09:41 02:13:06 18° 93° (E) 02:16:45 435.225
SWISSCUBE 02 Aug 02:15:55 02:20:36 54° 260° (W) 02:25:19 437.505
PHONESAT 2.4 02 Aug 02:20:09 02:23:18 31° 216° (SW) 02:26:24 2401.200-2431.200
ITAMSAT 1 02 Aug 02:26:13 02:30:11 23° 95° (E) 02:34:17 435.822/435.867
JAS-2 02 Aug 02:26:52 02:30:09 14° 87° (E) 02:34:04 435.910
KKS-1 02 Aug 02:33:38 02:37:24 28° 73° (ENE) 02:41:13 437.445
ITUPSAT 1 02 Aug 02:37:43 02:42:07 34° 262° (W) 02:46:28 437.325
Cosmos 2504 02 Aug 02:41:16 02:48:11 67° 93° (E) 02:55:36 435.465 / 435.565
Oscar 19 02 Aug 02:41:38 02:46:40 53° 286° (WNW) 02:51:42 437.125/150
JUGNU 02 Aug 03:16:10 03:21:00 26° 172° (S) 03:25:49 437.505
SRMSAT 02 Aug 03:22:49 03:26:01 15° 164° (SSE) 03:29:18 437.500
MOZHAYETS 4 02 Aug 03:32:30 03:34:44 14° 70° (ENE) 03:37:11
HORYU 2 02 Aug 03:38:08 03:40:12 13° 92° (E) 03:42:32 437.375
ISS 02 Aug 03:38:09 03:40:47 23° 38° (NE) 03:43:27 145.825
STARS 02 Aug 03:40:09 03:44:30 76° 257° (WSW) 03:48:52 437.465
DANDE 02 Aug 03:43:22 03:45:01 13° 98° (E) 03:46:40 436.750
Gurwin Techsat 1B 02 Aug 03:48:17 03:53:17 42° 287° (WNW) 03:58:14 435.225
CUSAT 1 02 Aug 03:55:26 03:58:21 35° 97° (E) 04:00:53 437.405
ITAMSAT 1 02 Aug 04:05:09 04:09:43 32° 288° (WNW) 04:14:12 435.822/435.867
